Location: Elmsmere
(40.9284°N, 73.8207°W)
Time: 21:05:02
(UTC+00:00)

STARLINK-2647 - Pass Details

Date: 26 June 2021
Orbit: 546 x 548 km, 53.1° (Epoch: 31 July)

Event Time Altitude Azimuth Distance (km) Brightness Sun altitude
Exits shadow 06:41:16 39° 130° (SE) 827 4.3 -21.4°
Drops below altitude 10° 06:45:02 10° 65° (ENE) 1,819 7.0 -21.1°
Enters shadow 07:41:49 -69° 234° (SW) 12,508 10.4 -15.3°
